Goodland, KS

4:57 AM MDT on March 27, 2017 (GMT -0600)
Renner-Goodland Municipal

Weather History for KGLD - May, 2013

Change the Weather History Date:

Saturday, May 18, 2013

  Actual Average Record
Temperature  
Mean Temperature 73 °F 60 °F  
Max Temperature 87 °F 74 °F 98 °F (1996)
Min Temperature 59 °F 47 °F 29 °F (1930)
Degree Days  
Heating Degree Days 0 6  
Month to date heating degree days 171 153  
Since 1 July heating degree days 5921 5808  
Cooling Degree Days 8 1  
Month to date cooling degree days 47 16  
Year to date cooling degree days 47 20  
Growing Degree Days 24 (Base 50)    
Moisture  
Dew Point 56 °F    
Average Humidity 59    
Maximum Humidity 93    
Minimum Humidity 25    
Precipitation  
Precipitation 0.00 in 0.10 in 1.10 in (1981)
Month to date precipitation 0.64 1.53  
Year to date precipitation 3.73 5.06  
Snow  
Snow 0.00 in 0.00 in - ()
Month to date snowfall 3.5 0.5  
Since 1 July snowfall 59.2 35.5  
Snow Depth 0.00 in    
Sea Level Pressure  
Sea Level Pressure 29.66 in    
Wind  
Wind Speed 13 mph (SE)    
Max Wind Speed 33 mph    
Max Gust Speed 43 mph    
Visibility 10 miles    
Events      
T = Trace of Precipitation, MM = Missing Value Source: NWS Daily Summary

Daily Weather History Graph

Daily Weather History Graph

Search for Another Location

Airport or City:

Trip Planner

Search our weather history database for the weather conditions in past years. The results will help you decide how hot, cold, wet, or windy it might be!

Date:

Astronomy

May. 18, 2013 Rise Set
Actual Time 5:30 AM MDT 7:56 PM MDT
Civil Twilight 4:59 AM MDT 8:27 PM MDT
Nautical Twilight 4:21 AM MDT 9:05 PM MDT
Astronomical Twilight 3:40 AM MDT 9:47 PM MDT
Moon 1:04 PM MDT (5/18) 1:21 AM MDT (5/18)
Length of Visible Light 15h 27m
Length of Day
14h 26m
First Quarter, 56% of the Moon is Illuminated
May 18
First Quarter
May 24
Full
May 31
Last Quarter
Jun 8
New
Jun 16
First Quarter

Hourly Weather History & Observations

Time (MDT) Temp. Heat Index Dew Point Humidity Pressure Visibility Wind Dir Wind Speed Gust Speed Precip Events Conditions
12:12 AM 64.4 °F - 62.6 °F 94% 29.84 in 10.0 mi SSE 17.3 mph - N/A   Overcast
12:41 AM 64.4 °F - 62.6 °F 94% 29.83 in 10.0 mi SSE 18.4 mph - N/A   Overcast
12:53 AM 64.9 °F - 62.1 °F 90% 29.70 in 10.0 mi SSE 20.7 mph - N/A   Overcast
1:53 AM 64.9 °F - 61.0 °F 87% 29.67 in 10.0 mi SSE 20.7 mph - N/A   Mostly Cloudy
2:42 AM 64.4 °F - 60.8 °F 88% 29.79 in 10.0 mi South 19.6 mph - N/A   Scattered Clouds
2:53 AM 63.0 °F - 61.0 °F 93% 29.65 in 10.0 mi South 20.7 mph 29.9 mph N/A   Partly Cloudy
3:53 AM 63.0 °F - 61.0 °F 93% 29.64 in 9.0 mi South 15.0 mph - N/A   Clear
4:51 AM 62.6 °F - 60.8 °F 94% 29.78 in 9.0 mi South 13.8 mph - N/A   Scattered Clouds
4:53 AM 63.0 °F - 61.0 °F 93% 29.64 in 9.0 mi South 16.1 mph - N/A   Scattered Clouds
5:16 AM 62.6 °F - 60.8 °F 94% 29.79 in 9.0 mi SSW 10.4 mph - N/A   Mostly Cloudy
5:53 AM 63.0 °F - 61.0 °F 93% 29.66 in 8.0 mi South 11.5 mph 16.1 mph N/A   Mostly Cloudy
6:53 AM 63.0 °F - 60.1 °F 90% 29.67 in 10.0 mi South 11.5 mph - N/A   Mostly Cloudy
7:49 AM 64.4 °F - 60.8 °F 88% 29.80 in 10.0 mi South 6.9 mph - N/A   Partly Cloudy
7:53 AM 66.0 °F - 61.0 °F 84% 29.68 in 10.0 mi South 6.9 mph - N/A   Partly Cloudy
8:53 AM 68.0 °F - 59.0 °F 73% 29.69 in 10.0 mi South 3.5 mph - N/A   Clear
9:53 AM 73.0 °F - 55.9 °F 55% 29.68 in 10.0 mi Variable 5.8 mph - N/A   Clear
10:53 AM 75.0 °F - 55.0 °F 50% 29.67 in 10.0 mi SSW 3.5 mph - N/A   Clear
11:53 AM 79.0 °F - 53.1 °F 40% 29.65 in 10.0 mi NNE 4.6 mph - N/A   Clear
12:53 PM 80.6 °F 80.5 °F 55.4 °F 42% 29.76 in 10.0 mi NNE 13.8 mph 17.3 mph N/A   Partly Cloudy
1:53 PM 82.9 °F 81.9 °F 54.0 °F 37% 29.61 in 10.0 mi East 8.1 mph - N/A   Clear
2:53 PM 82.9 °F - 50.0 °F 32% 29.57 in 10.0 mi ENE 11.5 mph - N/A   Clear
3:53 PM 84.9 °F - 45.0 °F 25% 29.54 in 10.0 mi NNW 3.5 mph - N/A   Clear
4:53 PM 84.9 °F - 50.0 °F 30% 29.48 in 10.0 mi NNW 11.5 mph - N/A   Clear
5:53 PM 84.0 °F 82.5 °F 53.1 °F 34% 29.51 in 10.0 mi NE 27.6 mph 35.7 mph N/A   Clear
6:53 PM 73.0 °F - 53.1 °F 49% 29.53 in 10.0 mi ENE 23.0 mph 27.6 mph N/A   Clear
7:53 PM 66.9 °F - 53.1 °F 61% 29.51 in 10.0 mi East 11.5 mph - N/A   Clear
8:53 PM 63.0 °F - 52.0 °F 67% 29.57 in 10.0 mi ESE 6.9 mph - N/A   Clear
9:53 PM 62.1 °F - 52.0 °F 70% 29.57 in 10.0 mi ENE 12.7 mph - N/A   Partly Cloudy
10:53 PM 60.1 °F - 51.1 °F 72% 29.60 in 10.0 mi NNE 13.8 mph - N/A   Clear
11:53 PM 60.8 °F - 48.2 °F 63% 29.76 in 10.0 mi NNW 16.1 mph 25.3 mph N/A   Partly Cloudy